Station SJSN4 - 8537121 - Ship John Shoal, NJ Image indicating link to RSS feed of recent meteorological observations for station SJSN4


Conditions at SJSN4 as of
(5:18 pm EDT)
2118 GMT on 04/17/2024:
     

Click on the graph icon in the table below to see a time series plot of the last five days of that observation.

5-day plot - Wind Direction Wind Direction (WDIR): SE ( 140 deg true )
5-day plot - Wind Speed Wind Speed (WSPD): 15.0 kts
5-day plot - Wind Gust Wind Gust (GST): 19.0 kts
5-day plot - Atmospheric Pressure Atmospheric Pressure (PRES):30.00 in
5-day plot - Air Temperature Air Temperature (ATMP): 57.6 °F
5-day plot - Wind Speed at 10 Meters Wind Speed at 10 meters (WSPD10M): 15.5 kts
5-day plot - Wind Speed at 20 Meters Wind Speed at 20 meters (WSPD20M): 15.5 kts
5-day plot -  Wind Speed, Wind Gust and Atmospheric Pressure Combined plot of Wind Speed, Gust, and Air Pressure
NOS Water Level Observation Network Water Level
Previous observations
TIME
(EDT)
5-day plot - Wind Direction
WDIR
 
5-day plot - Wind Speed
WSPD
kts
5-day plot - Wind Gust
GST
kts
5-day plot - Wave Height
WVHT
ft
5-day plot - Dominant Wave Period
DPD
sec
5-day plot - Average Wave Period
APD
sec
5-day plot - Mean Wave Direction
MWD
 
5-day plot - Atmospheric Pressure
PRES
in
5-day plot - Pressure Tendency
PTDY
in
5-day plot - Air Temperature
ATMP
°F
5-day plot - Water Temperature
WTMP
°F
5-day plot - Dew Point
DEWP
°F
5-day plot - Salinity
SAL
psu
5-day plot - Visibility
VIS
nmi
5-day plot - Tide (above MLLW)
TIDE
ft
2024-04-17 05:12 pm SE 18.1 20.0----30.00- 57.4-----
2024-04-17 05:06 pmESE 19.0 24.1----29.99- 57.2-----
2024-04-17 05:00 pm SE 20.0 24.1----29.98-0.08 57.0-----
2024-04-17 04:54 pmESE 24.1 27.0----29.97- 56.8-----
2024-04-17 04:48 pm SE 25.1 28.0----29.96- 56.8-----
2024-04-17 04:42 pm SE 25.1 28.9----29.97- 57.0-----
2024-04-17 04:36 pmESE 22.9 26.0----29.97- 57.2-----
2024-04-17 04:30 pmESE 25.1 27.0----29.97- 57.2-----
2024-04-17 04:24 pmESE 22.9 25.1----29.97- 57.4-----
2024-04-17 04:18 pmESE 24.1 28.0----29.97- 57.6-----
2024-04-17 04:12 pmESE 26.0 29.9----29.95- 57.9-----
2024-04-17 04:06 pmESE 28.0 31.1----29.94- 57.9-----
2024-04-17 04:00 pmESE 27.0 28.9----29.94-0.17 57.7-----
2024-04-17 03:54 pm E 24.1 26.0----29.96- 57.7-----
2024-04-17 03:48 pm E 19.0 21.0----30.00- 57.9-----
2024-04-17 03:42 pmESE 18.1 19.0----30.01- 57.9-----
2024-04-17 03:36 pmESE 17.1 19.0----30.02- 58.1-----
2024-04-17 03:30 pmESE 18.1 19.0----30.03- 58.3-----
2024-04-17 03:24 pmESE 15.0 18.1----30.03- 58.3-----
2024-04-17 03:18 pmESE 15.9 20.0----30.03- 58.1-----
2024-04-17 03:12 pmESE 20.0 21.0----30.03- 58.1-----
2024-04-17 03:06 pmESE 19.0 21.0----30.03- 57.9-----
2024-04-17 03:00 pmESE 19.0 21.0----30.03-0.08 57.7-----
2024-04-17 02:54 pmESE 20.0 21.0----30.03- 57.7-----
2024-04-17 02:48 pmESE 18.1 19.0----30.04- 57.9-----
2024-04-17 02:42 pmESE 17.1 19.0----30.04- 57.7-----
2024-04-17 02:36 pmESE 17.1 18.1----30.05- 57.7-----
2024-04-17 02:30 pm E 18.1 19.0----30.05- 57.7-----
2024-04-17 02:24 pm E 15.9 18.1----30.06- 57.7-----
2024-04-17 02:18 pm E 15.0 18.1----30.06- 57.6-----
2024-04-17 02:12 pm E 17.1 18.1----30.05- 57.6-----
2024-04-17 02:06 pm E 15.0 15.9----30.06- 57.4-----
2024-04-17 02:00 pm E 15.0 15.9----30.06-0.06 57.7-----
2024-04-17 01:54 pm E 13.0 15.0----30.06- 57.6-----
2024-04-17 01:48 pm E 14.0 15.9----30.06- 57.2-----
2024-04-17 01:42 pm E 14.0 15.0----30.06- 57.0-----
2024-04-17 01:36 pm E 14.0 15.0----30.06- 57.0-----
2024-04-17 01:30 pm E 12.0 13.0----30.06- 57.0-----
2024-04-17 01:24 pm E 11.1 13.0----30.07- 56.8-----
2024-04-17 01:18 pm E 9.9 12.0----30.08- 57.0-----
2024-04-17 01:12 pm E 12.0 13.0----30.09- 57.2-----
2024-04-17 01:06 pm E 4.1 5.1----30.10- 58.1-----
2024-04-17 01:00 pmENE 2.9 4.1----30.11-0.01 58.3-----
2024-04-17 12:54 pm NE 2.9 2.9----30.12- 57.9-----
2024-04-17 12:48 pmENE 2.9 4.1----30.12- 58.1-----
2024-04-17 12:42 pmENE 4.1 4.1----30.11- 57.9-----
2024-04-17 12:36 pmENE 1.9 2.9----30.11- 57.7-----
2024-04-17 12:30 pm- 0.0 2.9----30.12- 57.9-----
2024-04-17 12:24 pm E 1.9 1.9----30.11- 57.9-----
2024-04-17 12:18 pm- 0.0 1.9----30.11- 57.7-----
2024-04-17 12:12 pmENE 1.9 1.9----30.11- 57.6-----
2024-04-17 12:06 pm E 1.9 5.1----30.11- 57.6-----
2024-04-17 12:00 pmESE 5.1 6.0----30.11-0.02 57.6-----
2024-04-17 11:54 amESE 4.1 5.1----30.11- 57.7-----
2024-04-17 11:48 amESE 5.1 6.0----30.11- 57.6-----
2024-04-17 11:42 am E 6.0 6.0----30.11- 57.4-----
2024-04-17 11:36 am E 5.1 6.0----30.11- 57.4-----
2024-04-17 11:30 am E 4.1 5.1----30.11- 57.4-----
2024-04-17 11:24 am E 4.1 7.0----30.11- 57.4-----
2024-04-17 11:18 am E 7.0 7.0----30.11- 57.4-----
2024-04-17 11:12 am E 7.0 8.0----30.12- 57.4-----
2024-04-17 11:06 am E 7.0 8.0----30.12- 57.2-----
2024-04-17 11:00 am E 8.0 8.9----30.12-0.02 57.2-----
2024-04-17 10:54 amESE 8.0 9.9----30.12- 57.2-----
2024-04-17 10:48 amESE 8.9 11.1----30.12- 57.2-----
2024-04-17 10:42 amESE 8.9 11.1----30.12- 57.0-----
2024-04-17 10:36 amESE 8.0 8.9----30.12- 57.2-----
2024-04-17 10:30 amESE 7.0 8.0----30.12- 57.2-----
2024-04-17 10:24 am SE 8.0 8.9----30.12- 57.2-----
2024-04-17 10:18 am SE 8.0 8.9----30.12- 57.0-----
2024-04-17 10:12 am SE 8.0 8.9----30.12- 56.8-----
2024-04-17 10:06 am SE 7.0 8.0----30.12- 57.0-----
2024-04-17 10:00 am SE 7.0 8.0----30.12-0.02 57.0-----
2024-04-17 09:54 amESE 7.0 8.0----30.12- 56.8-----
2024-04-17 09:48 am SE 7.0 8.0----30.12- 56.7-----
2024-04-17 09:42 am SE 7.0 7.0----30.12- 56.8-----
2024-04-17 09:36 am SE 4.1 6.0----30.13- 57.4-----
2024-04-17 09:30 am SE 5.1 6.0----30.13- 57.2-----
2024-04-17 09:24 am SE 6.0 7.0----30.13- 57.4-----
2024-04-17 09:18 am SE 6.0 7.0----30.13- 57.6-----
2024-04-17 09:12 amSSE 7.0 8.0----30.13- 57.7-----
2024-04-17 09:06 amSSE 7.0 8.9----30.13- 57.4-----
2024-04-17 09:00 amSSE 8.0 8.9----30.13-0.02 57.9-----
2024-04-17 08:54 am SE 8.0 8.9----30.13- 57.7-----
2024-04-17 08:48 am SE 8.0 8.9----30.13- 57.4-----
2024-04-17 08:42 am SE 8.0 8.9----30.13- 57.0-----
2024-04-17 08:36 am SE 8.0 8.0----30.13- 56.8-----
2024-04-17 08:30 amSSE 7.0 8.0----30.14- 57.2-----
2024-04-17 08:24 amSSE 6.0 7.0----30.14- 57.6-----
2024-04-17 08:18 amSSE 6.0 8.9----30.14- 57.7-----
2024-04-17 08:12 amSSE 8.0 8.9----30.14- 57.2-----
2024-04-17 08:06 amSSE 7.0 7.0----30.14- 57.0-----
2024-04-17 08:00 am S 6.0 7.0----30.14+0.00 56.8-----
2024-04-17 07:54 amSSE 7.0 8.9----30.14- 56.8-----
2024-04-17 07:48 amSSE 7.0 8.0----30.14- 56.7-----
2024-04-17 07:42 amSSE 7.0 8.0----30.14- 56.5-----
2024-04-17 07:36 amSSE 7.0 8.9----30.14- 56.7-----
2024-04-17 07:30 am S 8.0 8.9----30.14- 56.8-----
2024-04-17 07:24 am S 8.9 9.9----30.14- 57.0-----
2024-04-17 07:18 amSSE 8.9 9.9----30.14- 57.0-----
2024-04-17 07:12 am S 9.9 11.1----30.14- 56.8-----
2024-04-17 07:06 amSSE 9.9 11.1----30.14- 56.8-----
2024-04-17 07:00 am S 8.9 9.9----30.15-0.01 57.0-----
2024-04-17 06:54 am S 9.9 9.9----30.15- 57.0-----
2024-04-17 06:48 am S 8.9 9.9----30.15- 57.0-----
2024-04-17 06:42 am S 8.9 9.9----30.15- 56.8-----
2024-04-17 06:36 amSSE 7.0 8.9----30.15- 56.8-----
2024-04-17 06:30 amSSE 8.0 9.9----30.15- 56.8-----
2024-04-17 06:24 amSSE 9.9 12.0----30.14- 56.8-----
2024-04-17 06:18 amSSE 11.1 12.0----30.14- 56.7-----
2024-04-17 06:12 amSSE 8.9 12.0----30.14- 56.8-----
2024-04-17 06:06 am S 11.1 13.0----30.14- 56.8-----
2024-04-17 06:00 am S 12.0 13.0----30.15-0.02 56.8-----
2024-04-17 05:54 am S 12.0 13.0----30.15- 56.8-----
2024-04-17 05:48 am S 11.1 13.0----30.15- 57.0-----
2024-04-17 05:42 am S 11.1 12.0----30.15- 56.7-----
2024-04-17 05:36 am S 11.1 12.0----30.14- 56.7-----
2024-04-17 05:30 am S 9.9 13.0----30.15- 56.7-----
2024-04-17 05:24 am S 13.0 14.0----30.15- 56.7-----
2024-04-17 05:18 am S 11.1 12.0----30.15- 56.5-----
2024-04-17 05:12 am S 11.1 13.0----30.15- 56.5-----
2024-04-17 05:06 am S 9.9 12.0----30.14- 56.5-----
2024-04-17 05:00 am S 9.9 12.0----30.14+0.00 56.3-----
2024-04-17 04:54 amSSE 12.0 12.0----30.14- 56.1-----
2024-04-17 04:48 am S 8.9 12.0----30.14- 55.9-----
2024-04-17 04:42 am S 12.0 13.0----30.14- 55.8-----
2024-04-17 04:36 amSSE 9.9 11.1----30.14- 55.4-----
2024-04-17 04:30 amSSE 8.9 9.9----30.14- 55.2-----
2024-04-17 04:24 amSSE 7.0 8.0----30.14- 55.2-----
2024-04-17 04:18 amSSE 7.0 8.9----30.15- 55.8-----
2024-04-17 04:12 am S 8.9 11.1----30.16- 55.9-----
2024-04-17 04:06 am S 8.9 11.1----30.16- 55.8-----
2024-04-17 04:00 amSSW 8.0 9.9----30.16+0.01 55.8-----
2024-04-17 03:54 amSSW 8.0 9.9----30.16- 55.6-----
2024-04-17 03:48 amSSW 8.0 8.9----30.16- 55.4-----
2024-04-17 03:42 am S 7.0 8.9----30.16- 55.4-----
2024-04-17 03:36 amSSW 8.0 8.9----30.16- 55.4-----
2024-04-17 03:30 amSSW 8.0 9.9----30.16- 55.4-----
2024-04-17 03:24 amSSW 8.0 8.9----30.16- 55.4-----
2024-04-17 03:18 amSSW 7.0 8.0----30.16- 55.2-----
2024-04-17 03:12 amSSW 7.0 9.9----30.16- 55.2-----
2024-04-17 03:06 amSSW 7.0 8.0----30.16- 55.2-----
2024-04-17 03:00 amSSW 8.0 9.9----30.16+0.00 55.2-----
2024-04-17 02:54 amSSW 9.9 11.1----30.16- 55.2-----
2024-04-17 02:48 amSSW 8.9 11.1----30.16- 55.4-----
2024-04-17 02:42 amSSW 8.0 8.9----30.16- 55.4-----
2024-04-17 02:36 amSSW 8.9 9.9----30.16- 55.6-----
2024-04-17 02:30 am S 8.0 9.9----30.16- 55.9-----
2024-04-17 02:24 am S 9.9 12.0----30.15- 55.9-----
2024-04-17 02:18 amSSW 11.1 12.0----30.15- 56.5-----
2024-04-17 02:12 am S 11.1 12.0----30.14- 56.8-----
2024-04-17 02:06 am S 9.9 12.0----30.14- 56.8-----
2024-04-17 02:00 am S 12.0 13.0----30.14-0.02 57.0-----
2024-04-17 01:54 am S 12.0 13.0----30.14- 57.0-----
2024-04-17 01:48 am S 12.0 14.0----30.14- 57.0-----
2024-04-17 01:42 am S 13.0 14.0----30.14- 56.8-----
2024-04-17 01:36 am S 14.0 15.0----30.14- 57.0-----
2024-04-17 01:30 am S 14.0 15.9----30.14- 57.2-----
2024-04-17 01:24 am S 13.0 15.9----30.14- 57.2-----
2024-04-17 01:18 am S 12.0 15.0----30.14- 57.4-----
2024-04-17 01:12 am S 12.0 14.0----30.15- 57.4-----
2024-04-17 01:06 am S 9.9 13.0----30.15- 57.4-----
2024-04-17 01:00 amSSE 11.1 12.0----30.15-0.01 57.2-----
2024-04-17 12:54 am S 8.9 11.1----30.15- 57.2-----
2024-04-17 12:48 am S 8.9 11.1----30.15- 57.2-----
2024-04-17 12:42 am S 8.0 9.9----30.16- 57.2-----
2024-04-17 12:36 am S 8.9 11.1----30.16- 57.4-----
2024-04-17 12:30 am S 9.9 13.0----30.16- 57.4-----
2024-04-17 12:24 am S 11.1 12.0----30.16- 57.7-----
2024-04-17 12:18 am S 11.1 12.0----30.16- 57.7-----
2024-04-17 12:12 am S 8.9 11.1----30.16- 57.9-----
2024-04-17 12:06 am S 8.9 12.0----30.16- 57.9-----
2024-04-17 12:00 am S 9.9 12.0----30.16+0.01 58.1-----
2024-04-16 11:54 pm S 9.9 12.0----30.17- 58.1-----
2024-04-16 11:48 pm S 11.1 13.0----30.17- 58.3-----
2024-04-16 11:42 pm S 11.1 13.0----30.17- 58.5-----
2024-04-16 11:36 pm S 13.0 14.0----30.17- 58.5-----
2024-04-16 11:30 pm S 12.0 13.0----30.17- 58.5-----
2024-04-16 11:24 pm S 12.0 13.0----30.17- 58.5-----
2024-04-16 11:18 pm S 12.0 13.0----30.17- 58.8-----
2024-04-16 11:12 pm S 11.1 13.0----30.17- 59.2-----
2024-04-16 11:06 pm S 12.0 13.0----30.17- 59.4-----
2024-04-16 11:00 pm S 12.0 13.0----30.16+0.04 59.4-----
2024-04-16 10:54 pm S 11.1 12.0----30.16- 59.2-----
2024-04-16 10:48 pmSSE 9.9 11.1----30.16- 59.4-----
2024-04-16 10:42 pm S 8.9 11.1----30.16- 59.5-----
2024-04-16 10:36 pm S 9.9 11.1----30.16- 59.9-----
2024-04-16 10:30 pm S 9.9 13.0----30.16- 60.4-----
2024-04-16 10:24 pm S 11.1 12.0----30.16- 59.9-----
2024-04-16 10:18 pm S 12.0 12.0----30.16- 59.9-----
2024-04-16 10:12 pm S 12.0 12.0----30.16- 59.7-----
2024-04-16 10:06 pm S 12.0 12.0----30.16- 59.9-----
2024-04-16 10:00 pm S 11.1 11.1----30.16+0.04 59.9-----
2024-04-16 09:54 pm S 9.9 11.1----30.16- 59.5-----
2024-04-16 09:48 pm S 11.1 12.0----30.16- 59.7-----
2024-04-16 09:42 pmSSE 12.0 13.0----30.16- 60.1-----
2024-04-16 09:36 pmSSE 13.0 14.0----30.16- 60.3-----
2024-04-16 09:30 pmSSE 14.0 15.9----30.15- 60.6-----
2024-04-16 09:24 pm S 15.0 17.1----30.15- 61.0-----
2024-04-16 09:18 pmSSE 15.0 15.9----30.15- 60.6-----
2024-04-16 09:12 pm S 15.0 15.9----30.15- 60.4-----
2024-04-16 09:06 pm S 15.9 17.1----30.15- 60.4-----
2024-04-16 09:00 pm S 15.0 17.1----30.15+0.03 60.3-----
2024-04-16 08:54 pm S 15.0 15.9----30.15- 59.9-----
2024-04-16 08:48 pmSSE 15.0 15.9----30.14- 60.1-----
2024-04-16 08:42 pmSSE 15.0 15.9----30.14- 60.3-----
2024-04-16 08:36 pmSSE 14.0 15.9----30.14- 60.8-----
2024-04-16 08:30 pm S 15.0 15.0----30.14- 61.2-----
2024-04-16 08:24 pm S 14.0 15.0----30.14- 61.2-----
2024-04-16 08:18 pm S 15.0 15.0----30.13- 61.2-----
2024-04-16 08:12 pm S 14.0 15.9----30.13- 61.0-----
2024-04-16 08:06 pm S 13.0 15.0----30.13- 61.0-----
2024-04-16 08:00 pm S 12.0 14.0----30.13+0.01 60.6-----
2024-04-16 07:54 pm S 12.0 14.0----30.13- 60.4-----
2024-04-16 07:48 pm S 13.0 14.0----30.13- 60.8-----
2024-04-16 07:42 pm S 12.0 15.0----30.13- 60.6-----
2024-04-16 07:36 pm S 13.0 13.0----30.13- 60.4-----
2024-04-16 07:30 pm S 13.0 14.0----30.13- 60.6-----
2024-04-16 07:24 pm S 13.0 13.0----30.12- 60.6-----
2024-04-16 07:00 pmSSE 14.0 15.0----30.12+0.00 60.4-----
2024-04-16 06:54 pm S 13.0 15.0----30.12- 60.3-----
2024-04-16 06:48 pmSSE 15.0 17.1----30.12- 61.5-----
2024-04-16 06:42 pmSSE 13.0 15.0----30.11- 63.1-----
2024-04-16 06:36 pm S 12.0 13.0----30.11- 63.7-----
2024-04-16 06:30 pm S 11.1 12.0----30.11-------
2024-04-16 06:24 pm S 9.9 11.1----30.12-------
2024-04-16 06:18 pm S 8.9 11.1----30.12-------
2024-04-16 06:12 pm S 9.9 11.1----30.11-------
2024-04-16 06:06 pm S 8.0 8.0----30.11-------
2024-04-16 06:00 pm S 7.0 7.0----30.12-0.02 65.8-----
2024-04-16 05:54 pm S 6.0 6.0----30.12- 65.3-----